TimePST,TemperatureF,Dew PointF,Humidity,Sea Level PressureIn,VisibilityMPH,Wind Direction,Wind SpeedMPH,Gust SpeedMPH,PrecipitationIn,Events,Conditions,WindDirDegrees,DateUTC
12:15 AM,26.6,19.4,74,30.19,10.0,Calm,Calm,-,N/A,,Partly Cloudy,0,2012-11-26 08:15:00
12:35 AM,24.8,19.4,80,30.18,9.0,SSW,3.5,-,N/A,,Clear,200,2012-11-26 08:35:00
12:55 AM,24.8,19.4,80,30.18,10.0,Calm,Calm,-,N/A,,Clear,0,2012-11-26 08:55:00
1:15 AM,24.8,19.4,80,30.18,10.0,Calm,Calm,-,N/A,,Partly Cloudy,0,2012-11-26 09:15:00
1:35 AM,24.8,19.4,80,30.18,10.0,South,3.5,-,N/A,,Scattered Clouds,190,2012-11-26 09:35:00
1:55 AM,23.0,17.6,80,30.18,10.0,Calm,Calm,-,N/A,,Scattered Clouds,0,2012-11-26 09:55:00
2:15 AM,23.0,17.6,80,30.18,10.0,Calm,Calm,-,N/A,,Clear,0,2012-11-26 10:15:00
2:35 AM,23.0,17.6,80,30.17,10.0,Calm,Calm,-,N/A,,Clear,0,2012-11-26 10:35:00
2:55 AM,23.0,17.6,80,30.17,10.0,Calm,Calm,-,N/A,,Mostly Cloudy,0,2012-11-26 10:55:00
3:15 AM,24.8,19.4,80,30.16,1.5,SSW,3.5,-,N/A,,Haze,210,2012-11-26 11:15:00
3:35 AM,26.6,21.2,80,30.15,0.2,Calm,Calm,-,N/A,,Haze,0,2012-11-26 11:35:00
3:55 AM,24.8,21.2,86,30.14,0.2,SSW,4.6,-,N/A,Fog,Light Freezing Fog,210,2012-11-26 11:55:00
4:15 AM,24.8,21.2,86,30.15,0.2,Calm,Calm,-,N/A,Fog,Light Freezing Fog,0,2012-11-26 12:15:00
4:35 AM,24.8,19.4,80,30.14,0.5,Calm,Calm,-,N/A,,Haze,0,2012-11-26 12:35:00
4:55 AM,24.8,19.4,80,30.15,0.5,Calm,Calm,-,N/A,Fog,Light Freezing Fog,0,2012-11-26 12:55:00
5:15 AM,24.8,19.4,80,30.15,0.5,SW,3.5,-,N/A,Fog,Light Freezing Fog,230,2012-11-26 13:15:00
5:35 AM,24.8,19.4,80,30.15,0.2,Calm,Calm,-,N/A,Fog,Light Freezing Fog,0,2012-11-26 13:35:00
5:55 AM,24.8,19.4,80,30.14,0.2,Calm,Calm,-,N/A,,Haze,0,2012-11-26 13:55:00
6:15 AM,26.6,21.2,80,30.14,0.2,Calm,Calm,-,N/A,,Haze,0,2012-11-26 14:15:00
7:15 AM,26.6,21.2,80,30.14,0.5,Calm,Calm,-,N/A,,Haze,0,2012-11-26 15:15:00
7:35 AM,24.8,19.4,80,30.14,1.0,Calm,Calm,-,N/A,,Haze,0,2012-11-26 15:35:00
7:55 AM,26.6,21.2,80,30.14,0.5,Calm,Calm,-,N/A,,Haze,0,2012-11-26 15:55:00
8:15 AM,26.6,23.0,86,30.15,5.0,Calm,Calm,-,N/A,,Overcast,0,2012-11-26 16:15:00
8:35 AM,28.4,24.8,86,30.15,6.0,Calm,Calm,-,N/A,,Overcast,0,2012-11-26 16:35:00
8:55 AM,28.4,24.8,86,30.14,5.0,SW,3.5,-,N/A,,Haze,220,2012-11-26 16:55:00
9:15 AM,28.4,24.8,86,30.14,5.0,Calm,Calm,-,N/A,,Overcast,0,2012-11-26 17:15:00
9:35 AM,28.4,24.8,86,30.15,5.0,Calm,Calm,-,N/A,,Overcast,0,2012-11-26 17:35:00
9:55 AM,28.4,24.8,86,30.14,7.0,Calm,Calm,-,N/A,,Overcast,0,2012-11-26 17:55:00
10:15 AM,28.4,24.8,86,30.14,8.0,Calm,Calm,-,N/A,,Overcast,0,2012-11-26 18:15:00
10:35 AM,30.2,26.6,86,30.13,10.0,Calm,Calm,-,N/A,,Overcast,0,2012-11-26 18:35:00
10:55 AM,32.0,28.4,87,30.13,10.0,Calm,Calm,-,N/A,,Overcast,0,2012-11-26 18:55:00
11:15 AM,32.0,28.4,87,30.13,10.0,Calm,Calm,-,N/A,Rain,Light Rain,0,2012-11-26 19:15:00
11:35 AM,33.8,30.2,87,30.12,10.0,Calm,Calm,-,N/A,,Scattered Clouds,0,2012-11-26 19:35:00
12:15 PM,37.4,32.0,81,30.11,10.0,SW,3.5,-,N/A,,Clear,230,2012-11-26 20:15:00
12:35 PM,39.2,28.4,65,30.10,10.0,Calm,Calm,-,N/A,,Clear,0,2012-11-26 20:35:00
12:55 PM,41.0,28.4,61,30.09,10.0,Calm,Calm,-,N/A,,Clear,0,2012-11-26 20:55:00
1:15 PM,41.0,26.6,57,30.09,10.0,WSW,3.5,-,N/A,,Clear,240,2012-11-26 21:15:00
1:35 PM,41.0,28.4,61,30.09,10.0,Calm,Calm,-,N/A,,Clear,0,2012-11-26 21:35:00
1:55 PM,37.4,28.4,70,30.08,10.0,North,5.8,-,N/A,,Clear,360,2012-11-26 21:55:00
2:15 PM,37.4,26.6,65,30.08,10.0,North,4.6,-,N/A,,Clear,360,2012-11-26 22:15:00
2:35 PM,37.4,26.6,65,30.07,10.0,NW,3.5,-,N/A,,Clear,310,2012-11-26 22:35:00
2:55 PM,37.4,26.6,65,30.07,7.0,North,5.8,-,N/A,,Clear,350,2012-11-26 22:55:00
3:15 PM,37.4,26.6,65,30.07,10.0,Calm,Calm,-,N/A,,Clear,0,2012-11-26 23:15:00
3:35 PM,37.4,26.6,65,30.07,10.0,North,4.6,-,N/A,,Clear,350,2012-11-26 23:35:00
3:55 PM,37.4,26.6,65,30.08,10.0,NNW,5.8,-,N/A,,Clear,330,2012-11-26 23:55:00
4:15 PM,37.4,26.6,65,30.09,10.0,NW,4.6,-,N/A,,Clear,320,2012-11-27 00:15:00
4:35 PM,35.6,26.6,70,30.09,10.0,NNW,3.5,-,N/A,,Clear,330,2012-11-27 00:35:00
4:55 PM,33.8,26.6,75,30.09,10.0,Calm,Calm,-,N/A,,Clear,0,2012-11-27 00:55:00
5:15 PM,32.0,24.8,75,30.10,10.0,Calm,Calm,-,N/A,,Clear,0,2012-11-27 01:15:00
5:35 PM,30.2,24.8,80,30.10,10.0,Calm,Calm,-,N/A,,Clear,0,2012-11-27 01:35:00
5:55 PM,30.2,24.8,80,30.10,10.0,Calm,Calm,-,N/A,,Clear,0,2012-11-27 01:55:00
6:15 PM,28.4,24.8,86,30.10,10.0,Calm,Calm,-,N/A,,Clear,0,2012-11-27 02:15:00
6:35 PM,28.4,24.8,86,30.11,10.0,Calm,Calm,-,N/A,,Clear,0,2012-11-27 02:35:00
6:55 PM,28.4,23.0,80,30.11,9.0,Calm,Calm,-,N/A,,Clear,0,2012-11-27 02:55:00
7:15 PM,28.4,23.0,80,30.10,10.0,Calm,Calm,-,N/A,,Clear,0,2012-11-27 03:15:00
7:35 PM,28.4,23.0,80,30.11,7.0,Calm,Calm,-,N/A,,Clear,0,2012-11-27 03:35:00
7:55 PM,26.6,23.0,86,30.11,8.0,SE,3.5,-,N/A,,Clear,130,2012-11-27 03:55:00
8:15 PM,26.6,23.0,86,30.11,8.0,SE,3.5,-,N/A,,Clear,130,2012-11-27 04:15:00
8:35 PM,26.6,23.0,86,30.11,9.0,Calm,Calm,-,N/A,,Clear,0,2012-11-27 04:35:00
8:55 PM,26.6,23.0,86,30.11,9.0,Calm,Calm,-,N/A,,Clear,0,2012-11-27 04:55:00
9:15 PM,26.6,23.0,86,30.12,9.0,Calm,Calm,-,N/A,,Clear,0,2012-11-27 05:15:00
9:35 PM,26.6,23.0,86,30.12,10.0,Calm,Calm,-,N/A,,Clear,0,2012-11-27 05:35:00
9:55 PM,26.6,21.2,80,30.12,9.0,Calm,Calm,-,N/A,,Clear,0,2012-11-27 05:55:00
10:15 PM,26.6,21.2,80,30.12,7.0,Calm,Calm,-,N/A,,Clear,0,2012-11-27 06:15:00
10:35 PM,24.8,19.4,80,30.13,7.0,Calm,Calm,-,N/A,,Clear,0,2012-11-27 06:35:00
10:55 PM,26.6,21.2,80,30.12,9.0,Calm,Calm,-,N/A,,Clear,0,2012-11-27 06:55:00
11:15 PM,24.8,19.4,80,30.12,8.0,Calm,Calm,-,N/A,,Clear,0,2012-11-27 07:15:00
11:55 PM,24.8,19.4,80,30.12,7.0,Calm,Calm,-,N/A,,Clear,0,2012-11-27 07:55:00